Oberbuscherhof, Germany

1:48 PM CEST on May 25, 2017 (GMT +0200)
Oberbuscherhof

Weather History for 10400 - May, 2013

Change the Weather History Date:

Sunday, May 5, 2013

  Actual Average Record
Temperature  
Mean Temperature 55 °F -  
Max Temperature 69 °F 66 °F - ()
Min Temperature 41 °F 48 °F - ()
Degree Days  
Heating Degree Days 10    
Growing Degree Days 5 (Base 50)    
Moisture  
Dew Point 42 °F    
Average Humidity 58    
Maximum Humidity 93    
Minimum Humidity 22    
Precipitation  
Precipitation 0.00 in - - ()
Sea Level Pressure  
Sea Level Pressure 30.20 in    
Wind  
Wind Speed 4 mph ()    
Max Wind Speed 9 mph    
Max Gust Speed -    
Visibility 12.0 miles    
Events Fog    
T = Trace of Precipitation, MM = Missing Value Source: Averaged Metar Reports

Daily Weather History Graph

Daily Weather History Graph

Search for Another Location

Airport or City:

Trip Planner

Search our weather history database for the weather conditions in past years. The results will help you decide how hot, cold, wet, or windy it might be!

Date:

Astronomy

May. 05, 2013 Rise Set
Actual Time 5:58 AM CEST 9:02 PM CEST
Civil Twilight 5:19 AM CEST 9:41 PM CEST
Nautical Twilight 4:28 AM CEST 10:32 PM CEST
Astronomical Twilight 3:23 AM CEST 11:38 PM CEST
Moon 3:51 AM CEST (5/5) 4:17 PM CEST (5/5)
Length of Visible Light 16h 21m
Length of Day
15h 04m
Waning Crescent, 20% of the Moon is Illuminated
May 5
Waning Crescent
May 10
New
May 18
First Quarter
May 25
Full
May 31
Last Quarter

Hourly Weather History & Observations

Time (CEST) Temp. Windchill Dew Point Humidity Pressure Visibility Wind Dir Wind Speed Gust Speed Precip Events Conditions
12:00 AM 51 °F - 42 °F 61% 30.19 in 19 mi SW 2.2 mph - -   Scattered Clouds
12:20 AM 50.0 °F - 41.0 °F 71% 30.18 in - WSW 3.5 mph - N/A   Clear
12:50 AM 48.2 °F - 41.0 °F 76% 30.18 in - SSW 4.6 mph - N/A   Clear
1:00 AM 48 °F - 42 °F 73% 30.20 in 19 mi SSW 4.5 mph - -   Scattered Clouds
1:20 AM 50.0 °F - 41.0 °F 71% 30.18 in - SW 4.6 mph - N/A   Clear
1:50 AM 48.2 °F - 41.0 °F 76% 30.18 in - SSW 5.8 mph - N/A   Clear
2:00 AM 46 °F - 41 °F 77% 30.20 in 19 mi SSW 4.5 mph - -   Scattered Clouds
2:20 AM 46.4 °F 44.3 °F 41.0 °F 81% 30.18 in - South 4.6 mph - N/A   Clear
2:50 AM 46.4 °F 43.5 °F 41.0 °F 81% 30.18 in - SSW 5.8 mph - N/A   Clear
3:00 AM 46 °F - 42 °F 80% 30.20 in 19 mi SSW 4.5 mph - -   Scattered Clouds
3:20 AM 46.4 °F 44.3 °F 41.0 °F 81% 30.18 in - SSW 4.6 mph - N/A   Clear
3:50 AM 44.6 °F 43.1 °F 41.0 °F 87% 30.18 in - SSE 3.5 mph - N/A   Clear
4:00 AM 44 °F - 41 °F 86% 30.20 in 19 mi SSE 4.5 mph - -  
4:20 AM 44.6 °F 41.4 °F 41.0 °F 87% 30.18 in - SSE 5.8 mph - N/A   Clear
4:50 AM 44.6 °F 43.1 °F 41.0 °F 87% 30.18 in - Variable 3.5 mph - N/A   Clear
5:20 AM 42.8 °F 41.1 °F 39.2 °F 87% 30.18 in - ESE 3.5 mph - N/A   Clear
5:50 AM 42.8 °F 41.1 °F 41.0 °F 93% 30.21 in 6.2 mi ESE 3.5 mph - N/A Fog Shallow Fog
6:00 AM 43 °F - 42 °F 93% 30.22 in 16 mi ESE 2.2 mph - - Fog Patches of Fog
6:20 AM 44.6 °F 40.7 °F 41.0 °F 87% 30.21 in - SSE 6.9 mph - N/A   Clear
6:50 AM 46.4 °F 42.4 °F 42.8 °F 87% 30.21 in - SSE 8.1 mph - N/A   Clear
7:00 AM 47 °F - 43 °F 82% 30.22 in 16 mi SSE 6.7 mph - -  
7:20 AM 48.2 °F - 44.6 °F 87% 30.21 in - South 4.6 mph - N/A   Clear
7:50 AM 51.8 °F - 44.6 °F 76% 30.21 in - SSE 4.6 mph - N/A   Clear
8:00 AM 51 °F - 45 °F 72% 30.23 in 19 mi SSE 4.5 mph - -   Scattered Clouds
8:20 AM 53.6 °F - 44.6 °F 72% 30.21 in - South 4.6 mph - N/A   Clear
8:50 AM 53.6 °F - 46.4 °F 77% 30.21 in - Variable 3.5 mph - N/A   Clear
9:00 AM 54 °F - 45 °F 62% 30.24 in 19 mi SW 4.5 mph - -   Scattered Clouds
9:20 AM 55.4 °F - 44.6 °F 67% 30.24 in - SSW 3.5 mph - N/A   Clear
9:50 AM 57.2 °F - 44.6 °F 63% 30.24 in 6.2 mi SW 3.5 mph - N/A   Partly Cloudy
10:00 AM 56 °F - 46 °F 59% 30.25 in 19 mi SW 4.5 mph - -   Scattered Clouds
10:20 AM 57.2 °F - 46.4 °F 67% 30.24 in 6.2 mi South 6.9 mph - N/A   Partly Cloudy
10:50 AM 59.0 °F - 46.4 °F 63% 30.24 in 6.2 mi South 5.8 mph - N/A   Partly Cloudy
11:20 AM 60.8 °F - 44.6 °F 55% 30.24 in 6.2 mi South 8.1 mph - N/A   Partly Cloudy
11:50 AM 60.8 °F - 44.6 °F 55% 30.24 in 6.2 mi SW 6.9 mph - N/A   Partly Cloudy
12:00 PM 59 °F - 45 °F 48% 30.25 in 22 mi SW 6.7 mph - -   Scattered Clouds
12:20 PM 62.6 °F - 46.4 °F 55% 30.21 in 6.2 mi SW 8.1 mph - N/A   Partly Cloudy
12:50 PM 62.6 °F - 42.8 °F 48% 30.21 in 6.2 mi South 5.8 mph - N/A   Partly Cloudy
1:00 PM 62 °F - 42 °F 36% 30.24 in 22 mi South 6.7 mph - -   Scattered Clouds
1:20 PM 64.4 °F - 44.6 °F 49% 30.21 in 6.2 mi South 8.1 mph - N/A   Partly Cloudy
1:50 PM 64.4 °F - 39.2 °F 40% 30.21 in 6.2 mi WSW 8.1 mph - N/A   Partly Cloudy
2:00 PM 64 °F - 40 °F 30% 30.23 in 25 mi WSW 8.9 mph - -   Scattered Clouds
2:20 PM 66.2 °F - 39.2 °F 37% 30.21 in 6.2 mi SW 6.9 mph - N/A   Partly Cloudy
2:50 PM 66.2 °F - 41.0 °F 40% 30.21 in - WSW 6.9 mph - N/A   Clear
3:00 PM 65 °F - 39 °F 27% 30.22 in 25 mi WSW 6.7 mph - -   Scattered Clouds
3:20 PM 66.2 °F - 39.2 °F 37% 30.21 in - West 4.6 mph - N/A   Clear
3:50 PM 68.0 °F - 37.4 °F 33% 30.18 in - Variable 3.5 mph - N/A   Clear
4:00 PM 67 °F - 37 °F 22% 30.20 in 25 mi WSW 4.5 mph - -   Scattered Clouds
4:20 PM 68.0 °F - 37.4 °F 33% 30.18 in - WSW 4.6 mph - N/A   Clear
4:50 PM 68.0 °F - 37.4 °F 33% 30.18 in - SW 2.3 mph - N/A   Clear
5:20 PM 68.0 °F - 37.4 °F 33% 30.18 in - West 4.6 mph - N/A   Clear
5:50 PM 69.8 °F - 39.2 °F 33% 30.18 in - Calm Calm - N/A   Clear
6:00 PM 68 °F - 39 °F 23% 30.19 in 25 mi WNW 2.2 mph - -   Clear
6:20 PM 69.8 °F - 39.2 °F 33% 30.18 in - NW 3.5 mph - N/A   Clear
6:50 PM 68.0 °F - 41.0 °F 37% 30.18 in - Variable 2.3 mph - N/A   Clear
7:00 PM 68 °F - 40 °F 25% 30.18 in 25 mi NW 2.2 mph - -   Clear
7:20 PM 68.0 °F - 44.6 °F 43% 30.15 in - North 4.6 mph - N/A   Clear
7:50 PM 66.2 °F - 42.8 °F 43% 30.15 in - North 3.5 mph - N/A   Clear
8:00 PM 66 °F - 43 °F 31% 30.18 in 25 mi North 4.5 mph - -   Clear
8:20 PM 66.2 °F - 42.8 °F 43% 30.15 in - NNW 3.5 mph - N/A   Clear
8:50 PM 62.6 °F - 42.8 °F 48% 30.18 in - North 4.6 mph - N/A   Clear
9:00 PM 62 °F - 43 °F 38% 30.19 in 31 mi North 4.5 mph - -   Clear
9:20 PM 60.8 °F - 42.8 °F 52% 30.18 in - North 4.6 mph - N/A   Clear
9:50 PM 57.2 °F - 39.2 °F 51% 30.18 in - NE 6.9 mph - N/A   Clear
10:00 PM 56 °F - 40 °F 43% 30.20 in 31 mi NE 6.7 mph - -   Clear
10:20 PM 59.0 °F - 39.2 °F 48% 30.18 in - NE 5.8 mph - N/A   Clear
10:50 PM 55.4 °F - 42.8 °F 63% 30.18 in - NNE 2.3 mph - N/A   Clear
11:20 PM 53.6 °F - 41.0 °F 62% 30.18 in - North 2.3 mph - N/A   Clear
11:50 PM 51.8 °F - 42.8 °F 71% 30.18 in - North 2.3 mph - N/A   Clear